Tracking 28348 objects as of 9-Dec-2023
HD Live streaming from Space Station
objects crossing your sky now

STARLINK-3136

Track STARLINK-3136 now!
10-day predictions
STARLINK-3136 is classified as:


NORAD ID: 49443
Int'l Code: 2021-104AM
Perigee: 545.5 km
Apogee: 548.2 km
Inclination: 53.2 °
Period: 95.4 minutes
Semi major axis: 6917 km
RCS: Unknown
Launch date: November 13, 2021
Source: United States (US)
Launch site: AIR FORCE EASTERN TEST RANGE (AFETR)
Your satellite tracking list
Your tracking list is empty




NASA's NSSDC Master Catalog

Two Line Element Set (TLE):
1 49443U 21104AM  23343.15656274  .00004537  00000-0  30292-3 0  9991
2 49443  53.2163 297.1263 0002013  98.9589 261.1631 15.08849048115969
Source of the keplerian elements: AFSPC